Torna al catalogo

KUIPER-00611

AttivoComunicazioniLEO
NORAD 69771·PAYLOAD·🇺🇸 United States

Lanciato Jul 2, 2026 da Cape Canaveral Space Force Station

Loading…

Prossimi Passaggi (prossime 24 ore)

TLE

AggiornatoSource: CelesTrak SupGP

Epoca: Sep 14, 2026, 20:35 UTC

1 69771C 26151J   26257.85810185  .00002039  00000+0  26688-3 0  2576
2 69771  51.8969 254.1282 0000657  60.1348 149.6839 14.79923231    16

Traccia KUIPER-00611 in tempo reale con AllMySat

Download on the App Store